Curitiba, Brazil

10:13 AM -02 on November 22, 2017 (GMT -0200)
Afonso Pena

Weather History for SBCT - March, 2014

Change the Weather History Date:

Thursday, March 27, 2014

  Actual Average Record
Temperature  
Mean Temperature 66 °F -  
Max Temperature 74 °F 74 °F 89 °F (2007)
Min Temperature 58 °F 56 °F 50 °F (1998)
Cooling Degree Days 1    
Growing Degree Days 16 (Base 50)    
Moisture  
Dew Point 61 °F    
Average Humidity 86    
Maximum Humidity 100    
Minimum Humidity 55    
Precipitation  
Precipitation 0.00 in - - ()
Sea Level Pressure  
Sea Level Pressure 30.19 in    
Wind  
Wind Speed 6 mph ()    
Max Wind Speed 12 mph    
Max Gust Speed -    
Visibility 7.0 miles    
Events      
Averages and records for this station are not official NWS values.
T = Trace of Precipitation, MM = Missing Value Source: Averaged Metar Reports

Daily Weather History Graph

Daily Weather History Graph

Search for Another Location

Airport or City:

Trip Planner

Search our weather history database for the weather conditions in past years. The results will help you decide how hot, cold, wet, or windy it might be!

Date:

Astronomy

Mar. 27, 2014 Rise Set
Actual Time 6:23 AM -03 6:20 PM -03
Civil Twilight 6:00 AM -03 6:43 PM -03
Nautical Twilight 5:33 AM -03 7:09 PM -03
Astronomical Twilight 5:07 AM -03 7:36 PM -03
Moon 2:58 AM -03 (3/27) 4:01 PM -03 (3/27)
Length of Visible Light 12h 42m
Length of Day
11h 56m
Waning Crescent, 13% of the Moon is Illuminated
Mar 27
Waning Crescent
Mar 30
New
Apr 7
First Quarter
Apr 15
Full
Apr 22
Last Quarter

Hourly Weather History & Observations

Time (-03) Temp. Dew Point Humidity Pressure Visibility Wind Dir Wind Speed Gust Speed Precip Events Conditions
12:00 AM 62.6 °F 60.8 °F 94% 30.27 in 6.2 mi ESE 4.6 mph - N/A   Mostly Cloudy
1:00 AM 60.8 °F 60.8 °F 100% 30.24 in 6.2 mi East 3.5 mph - N/A   Mostly Cloudy
2:00 AM 60.8 °F 60.8 °F 100% 30.21 in 6.2 mi East 5.8 mph - N/A   Mostly Cloudy
3:00 AM 60 °F 60 °F 100%  in 12 mi East 4.6 mph - -   Mostly Cloudy
3:00 AM 60.8 °F 60.8 °F 100% 30.18 in 6.2 mi East 4.6 mph - N/A   Mostly Cloudy
4:00 AM 60.8 °F 60.8 °F 100% 30.18 in 6.2 mi ESE 3.5 mph - N/A   Mostly Cloudy
5:00 AM 60.8 °F 60.8 °F 100% 30.18 in 6.2 mi East 5.8 mph - N/A   Mostly Cloudy
6:00 AM 60.8 °F 60.8 °F 100% 30.18 in 6.2 mi East 4.6 mph - N/A   Mostly Cloudy
7:00 AM 60.8 °F 60.8 °F 100% 30.21 in 6.2 mi East 3.5 mph - N/A   Scattered Clouds
8:00 AM 66.2 °F 60.8 °F 83% 30.21 in 6.2 mi East 8.1 mph - N/A   Scattered Clouds
9:00 AM 66 °F 59 °F 72%  in 12 mi East 8.1 mph - -   Partly Cloudy
9:00 AM 66.2 °F 59.0 °F 78% 30.24 in 6.2 mi East 8.1 mph - N/A   Scattered Clouds
10:00 AM 69.8 °F 60.8 °F 73% 30.24 in 6.2 mi ESE 9.2 mph - N/A   Mostly Cloudy
11:00 AM 69.8 °F 62.6 °F 78% 30.24 in 6.2 mi East 9.2 mph - N/A   Mostly Cloudy
12:00 PM 69.8 °F 60.8 °F 73% 30.21 in 6.2 mi East 11.5 mph - N/A   Mostly Cloudy
1:00 PM 71.6 °F 60.8 °F 69% 30.21 in 6.2 mi East 9.2 mph - N/A   Mostly Cloudy
2:00 PM 73.4 °F 62.6 °F 69% 30.18 in 6.2 mi ENE 9.2 mph - N/A   Mostly Cloudy
3:00 PM 75 °F 62 °F 55%  in 12 mi East 11.5 mph - -   Partly Cloudy
3:00 PM 75.2 °F 62.6 °F 65% 30.15 in 6.2 mi East 11.5 mph - N/A   Scattered Clouds
4:00 PM 73.4 °F 62.6 °F 69% 30.12 in 6.2 mi East 9.2 mph - N/A   Mostly Cloudy
5:00 PM 69.8 °F 62.6 °F 78% 30.15 in 6.2 mi East 9.2 mph - N/A   Scattered Clouds
6:00 PM 66.2 °F 64.4 °F 94% 30.15 in 6.2 mi East 11.5 mph - N/A   Partly Cloudy
6:25 PM 66.2 °F 62.6 °F 88% 30.15 in 6.2 mi East 10.4 mph - N/A   Partly Cloudy
7:00 PM 64.4 °F 62.6 °F 94% 30.15 in 6.2 mi East 6.9 mph - N/A   Mostly Cloudy
8:00 PM 64.4 °F 62.6 °F 94% 30.18 in 6.2 mi East 9.2 mph - N/A   Scattered Clouds
9:00 PM 64 °F 62 °F 90%  in 12 mi East 6.9 mph - -   Partly Cloudy
9:00 PM 64.4 °F 62.6 °F 94% 30.18 in 6.2 mi East 6.9 mph - N/A   Mostly Cloudy
10:00 PM 62.6 °F 60.8 °F 94% 30.18 in 6.2 mi East 6.9 mph - N/A   Mostly Cloudy
11:00 PM 62.6 °F 60.8 °F 94% 30.18 in 6.2 mi East 4.6 mph - N/A   Mostly Cloudy